Change the Weather History Date:

Tuesday, May 28, 2013

  Actual Average (KCIU) Record (KCIU)
Temperature  
Mean Temperature 52 °F -  
Max Temperature 56 °F 65 °F 93 °F (2001)
Min Temperature 48 °F 37 °F 24 °F (1983)
Degree Days  
Heating Degree Days 13    
Growing Degree Days 2 (Base 50)    
Moisture  
Dew Point 43 °F    
Average Humidity 76    
Maximum Humidity 100    
Minimum Humidity 42    
Precipitation  
Precipitation 0.00 in - - ()
Sea Level Pressure  
Sea Level Pressure 29.93 in    
Wind  
Wind Speed 5 mph (ESE)    
Max Wind Speed 15 mph    
Max Gust Speed 25 mph    
Visibility 7 miles    
Events Rain    
Averages and records for this station are not official NWS values.
T = Trace of Precipitation, MM = Missing Value Source: NWS Daily Summary

Daily Weather History Graph

Daily Weather History Graph

Search for Another Location

Airport or City:

Trip Planner

Search our weather history database for the weather conditions in past years. The results will help you decide how hot, cold, wet, or windy it might be!

Date:

Astronomy

May. 28, 2013 Rise Set
Actual Time 5:50 AM EDT 9:14 PM EDT
Civil Twilight 5:13 AM EDT 9:52 PM EDT
Nautical Twilight 4:24 AM EDT 10:40 PM EDT
Astronomical Twilight 3:22 AM EDT 11:43 PM EDT
Moon No Moon Rise 9:42 AM EDT (5/28)
Length of Visible Light 16h 38m
Length of Day
15h 24m
Waning Gibbous, 83% of the Moon is Illuminated
May 28
Waning Gibbous
May 31
Last Quarter
Jun 8
New
Jun 16
First Quarter
Jun 23
Full

Hourly Weather History & Observations

Time (EDT) Temp. Dew Point Humidity Pressure Visibility Wind Dir Wind Speed Gust Speed Precip Events Conditions
12:16 AM 51.3 °F 29.1 °F 43% 30.05 in 10.0 mi ESE 3.5 mph - N/A   Clear
12:36 AM 51.4 °F 28.8 °F 42% 30.05 in 10.0 mi ESE 3.5 mph - N/A   Clear
12:56 AM 50.2 °F 30.4 °F 47% 30.04 in 10.0 mi ESE 3.5 mph - N/A   Clear
1:16 AM 48.0 °F 32.0 °F 54% 30.04 in 10.0 mi Calm Calm - N/A   Clear
1:36 AM 49.3 °F 31.6 °F 51% 30.04 in 10.0 mi SE 3.5 mph - N/A   Clear
1:56 AM 49.6 °F 32.0 °F 51% 30.04 in 10.0 mi Calm Calm - N/A   Clear
2:16 AM 49.3 °F 32.2 °F 52% 30.04 in 10.0 mi Calm Calm - N/A   Clear
2:36 AM 50.0 °F 32.0 °F 50% 30.03 in 10.0 mi ESE 4.6 mph - N/A   Clear
2:56 AM 51.6 °F 31.3 °F 46% 30.02 in 10.0 mi East 4.6 mph - N/A   Clear
3:15 AM 51.3 °F 31.1 °F 46% 30.02 in 10.0 mi ESE 5.8 mph - N/A   Clear
3:36 AM 51.3 °F 32.0 °F 48% 30.01 in 10.0 mi ESE 4.6 mph - N/A   Clear
3:56 AM 50.9 °F 32.0 °F 48% 30.01 in 10.0 mi Calm Calm - N/A   Clear
4:15 AM 49.6 °F 33.8 °F 54% 30.01 in 10.0 mi Calm Calm - N/A   Mostly Cloudy
4:36 AM 49.8 °F 34.5 °F 56% 30.00 in 10.0 mi Calm Calm - N/A   Overcast
4:55 AM 50.4 °F 34.2 °F 54% 29.99 in 10.0 mi East 3.5 mph - N/A   Overcast
5:16 AM 50.9 °F 34.9 °F 54% 29.99 in 10.0 mi East 3.5 mph - N/A   Overcast
5:36 AM 50.9 °F 35.6 °F 56% 29.99 in 10.0 mi Calm Calm - N/A   Overcast
5:55 AM 50.7 °F 36.9 °F 59% 29.98 in 10.0 mi East 3.5 mph - N/A   Overcast
6:16 AM 51.1 °F 36.9 °F 58% 29.99 in 10.0 mi East 4.6 mph - N/A   Overcast
6:35 AM 51.6 °F 36.9 °F 57% 29.99 in 10.0 mi ESE 4.6 mph - N/A   Overcast
6:56 AM 52.7 °F 36.7 °F 55% 29.99 in 10.0 mi ESE 6.9 mph - N/A   Overcast
7:16 AM 52.9 °F 36.7 °F 54% 29.99 in 10.0 mi ESE 6.9 mph - N/A   Overcast
7:35 AM 52.3 °F 37.4 °F 57% 29.99 in 10.0 mi SE 6.9 mph - N/A   Overcast
7:56 AM 50.7 °F 38.1 °F 62% 29.99 in 10.0 mi SE 8.1 mph - N/A   Overcast
8:16 AM 50.4 °F 39.4 °F 66% 29.98 in 10.0 mi SE 8.1 mph - N/A   Overcast
8:35 AM 51.3 °F 39.7 °F 65% 29.98 in 10.0 mi SE 6.9 mph - N/A   Overcast
8:56 AM 52.7 °F 40.5 °F 63% 29.97 in 10.0 mi SE 9.2 mph - N/A   Overcast
9:16 AM 52.9 °F 42.1 °F 67% 29.97 in 10.0 mi SE 4.6 mph - N/A   Overcast
9:35 AM 53.1 °F 42.3 °F 67% 29.98 in 10.0 mi SE 9.2 mph - N/A   Overcast
9:56 AM 53.6 °F 44.6 °F 72% 29.98 in 10.0 mi ESE 5.8 mph - N/A   Overcast
10:16 AM 54.0 °F 46.0 °F 75% 29.98 in 10.0 mi SE 10.4 mph 16.1 mph N/A   Overcast
10:36 AM 53.4 °F 45.9 °F 76% 29.97 in 10.0 mi ESE 10.4 mph - N/A   Overcast
10:56 AM 53.6 °F 45.5 °F 74% 29.97 in 10.0 mi ESE 12.7 mph 17.3 mph N/A   Overcast
11:15 AM 53.6 °F 45.3 °F 74% 29.96 in 10.0 mi ESE 10.4 mph - N/A   Overcast
11:36 AM 55.0 °F 43.5 °F 65% 29.95 in 10.0 mi ESE 10.4 mph - N/A   Overcast
11:56 AM 56.7 °F 45.3 °F 66% 29.95 in 10.0 mi ESE 8.1 mph 16.1 mph N/A   Overcast
12:16 PM 55.4 °F 48.6 °F 78% 29.95 in 10.0 mi ESE 9.2 mph - N/A   Overcast
12:36 PM 54.7 °F 48.2 °F 79% 29.94 in 10.0 mi ESE 13.8 mph 21.9 mph N/A   Overcast
12:55 PM 54.7 °F 48.0 °F 78% 29.94 in 10.0 mi ESE 12.7 mph 20.7 mph N/A Rain Light Rain
1:16 PM 54.0 °F 47.5 °F 79% 29.94 in 10.0 mi SE 15.0 mph 21.9 mph N/A   Overcast
1:36 PM 54.0 °F 47.1 °F 78% 29.93 in 10.0 mi ESE 8.1 mph 19.6 mph N/A   Overcast
1:55 PM 54.0 °F 46.0 °F 75% 29.93 in 10.0 mi ESE 13.8 mph 25.3 mph N/A   Overcast
2:16 PM 53.2 °F 46.9 °F 79% 29.90 in 10.0 mi ESE 10.4 mph 19.6 mph N/A Rain Rain
2:36 PM 53.1 °F 48.0 °F 83% 29.90 in 10.0 mi ESE 9.2 mph 16.1 mph N/A Rain Light Rain
2:55 PM 54.3 °F 48.0 °F 79% 29.90 in 10.0 mi SE 12.7 mph 17.3 mph N/A   Overcast
3:16 PM 53.6 °F 48.6 °F 83% 29.89 in 10.0 mi ESE 12.7 mph 18.4 mph N/A Rain Rain
3:36 PM 52.2 °F 49.1 °F 89% 29.89 in 5.0 mi ESE 9.2 mph 16.1 mph N/A Rain Light Rain
3:56 PM 51.1 °F 49.5 °F 94% 29.88 in 3.0 mi ESE 10.4 mph 18.4 mph N/A Rain Rain
4:16 PM 51.3 °F 50.2 °F 96% 29.89 in 4.0 mi ESE 6.9 mph - N/A Rain Rain
4:35 PM 51.1 °F 50.0 °F 96% 29.90 in 5.0 mi SE 3.5 mph - N/A Rain Light Rain
4:56 PM 50.9 °F 50.4 °F 98% 29.88 in 3.0 mi ESE 6.9 mph - N/A Rain Rain
5:16 PM 51.1 °F 50.9 °F 99% 29.88 in 2.5 mi East 4.6 mph - N/A Rain Rain
5:35 PM 51.3 °F 51.1 °F 99% 29.87 in 2.5 mi East 4.6 mph - N/A Rain Rain
5:56 PM 50.9 °F 50.9 °F 100% 29.86 in 3.0 mi East 4.6 mph - N/A Rain Light Rain
6:16 PM 50.7 °F 50.7 °F 100% 29.85 in 2.5 mi East 5.8 mph - N/A Rain Rain
6:35 PM 50.9 °F 50.9 °F 100% 29.84 in 4.0 mi East 8.1 mph - N/A   Drizzle
6:56 PM 50.9 °F 50.9 °F 100% 29.83 in 2.0 mi East 5.8 mph - N/A   Drizzle
7:16 PM 50.9 °F 50.9 °F 100% 29.83 in 2.0 mi East 6.9 mph - N/A Rain Light Rain
7:36 PM 50.7 °F 50.7 °F 100% 29.82 in 2.0 mi East 4.6 mph - N/A   Light Drizzle
7:56 PM 50.4 °F 50.4 °F 100% 29.81 in 2.5 mi East 5.8 mph - N/A   Overcast
8:16 PM 50.2 °F 50.2 °F 100% 29.82 in 3.0 mi ESE 8.1 mph - N/A   Overcast
8:36 PM 50.2 °F 50.2 °F 100% 29.82 in 3.0 mi East 3.5 mph - N/A   Overcast
8:56 PM 50.2 °F 50.2 °F 100% 29.82 in 4.0 mi East 3.5 mph - N/A Rain Light Rain
9:15 PM 50.4 °F 50.4 °F 100% 29.81 in 1.8 mi Calm Calm - N/A   Drizzle
9:36 PM 50.5 °F 50.5 °F 100% 29.79 in 1.5 mi ESE 5.8 mph - N/A   Light Drizzle
9:56 PM 51.1 °F 51.1 °F 100% 29.79 in 2.0 mi ESE 4.6 mph - N/A Rain Light Rain
10:15 PM 52.9 °F 52.9 °F 100% 29.80 in 1.8 mi SE 8.1 mph - N/A Rain Light Rain
10:36 PM 52.7 °F 52.7 °F 100% 29.79 in 1.0 mi SE 8.1 mph - N/A   Overcast
10:56 PM 52.3 °F 52.3 °F 100% 29.79 in 1.2 mi SSE 8.1 mph - N/A Rain Rain
11:16 PM 51.8 °F 51.8 °F 100% 29.79 in 1.8 mi SSE 6.9 mph - N/A   Overcast
11:36 PM 51.3 °F 51.3 °F 100% 29.79 in 5.0 mi SSE 3.5 mph - N/A Rain Light Rain
11:56 PM 50.9 °F 50.9 °F 100% 29.79 in 5.0 mi SSE 6.9 mph - N/A Rain Light Rain